Preview of NWS' New Version of Forecast
This preview is not operational and should not be used for support decisions.
Latest weather observations around

St Clair County Airport (KPLR)

Using International System of Units (Switch to English Units)
Date/ Time (CDT) Wind (kph) Vis. (km) Weather Sky Cond. Temp (°C) Rel. Humidity Wind Chill (°C) Heat Index (°C) Pressure Precip. (cm)
Air Dwpt 6 hour Altimeter (hPa) Sea level (hPa) 1 hr 3 hr 6 hr
Max Min
May 26 02:55 Calm 14.48 Clear   21 21     100%     1013.21        
May 26 02:35 Calm 9.66 Clear   21 21     100%     1013.55        
May 26 02:15 Calm 11.27 Clear   21 21     100%     1013.55        
May 26 01:55 Calm 8.05 Clear   20 20     100%     1013.55        
May 26 01:35 Calm 12.88 Clear   20 20     100%     1013.88        
May 26 01:15 Calm 4.02 Clear   20 20     100%     1013.88        
May 26 00:55 Calm 8.05 Clear   19 19     100%     1013.88        
May 26 00:35 Calm 9.66 Clear   20 20     100%     1014.22        
May 26 00:15 Calm 9.66 Clear   20 20     100%     1014.22        
May 25 23:55 Calm 9.66 Clear   20 20     100%     1014.56        
May 25 23:35 Calm 4.83 Clear   20 20     100%     1014.56        
May 25 23:15 Calm   Clear   20 20     100%     1014.56        
May 25 22:55 Calm 6.44 Clear   20 20     100%     1014.56        
May 25 22:35 Calm 9.66 Clear   20 20     100%     1014.9        
May 25 22:15 Calm 14.48 Clear   21 21     100%     1014.9        
May 25 21:55 Calm 16.09 Clear   21 21     100%     1014.9        
May 25 21:35 Calm 14.48 Clear   21 21     100%     1015.24        
May 25 21:15 Calm 11.27 Clear   21 21     100%     1014.9        
May 25 20:55 Calm 12.88 Clear   21 21     100%     1014.9        
May 25 20:35 Calm 11.27 Clear   21 21     100%     1014.9        
May 25 20:15 Calm 14.48 Clear   21 21     100%     1014.9        
May 25 19:55 Calm 16.09 Clear   21 21     100%     1014.9        
May 25 19:35 Calm 16.09 Clear   21 21     100%     1014.9        
May 25 19:15 Calm 16.09 Clear   21 21     100%     1014.9        
May 25 18:55 Calm 16.09 Clear   21 21     100%     1014.22        
May 25 18:35 Calm 16.09 Clear   22 22     100%   23 1013.55        
May 25 18:15 Calm 16.09 Clear   22 22     100%   23 1013.55        
May 25 17:55 SSW 6 16.09 Clear   21 21     100%     1013.55        
May 25 17:35 Calm 14.48 Clear   21 21     100%     1013.55        
May 25 17:15 Calm 16.09 Clear   21 21     100%     1013.55        
May 25 16:55 Calm 14.48 Clear   21 21     100%     1013.55        
May 25 16:35 SSW 6 9.66 Clear   21 21     100%     1013.88        
May 25 16:15 SW 6 9.66 Clear   21 21     100%     1014.22        
May 25 15:55 WSW 13 8.05 Clear   22 21     94%   23 1014.22        
May 25 15:35 SW 11 16.09 Clear   22 21     94%   23 1014.56        
May 25 15:15 SSW 17 16.09 Clear   23 22     94%   24 1014.9        
May 25 14:55 SSW 15 16.09 Clear   24 22     89%   25 1014.9        
May 25 14:35 S 17 16.09 Clear   26 23     84%   28 1015.24        
May 25 14:15 S 11 16.09 Clear   27 24     84%   30 1014.9        
May 25 13:55 Calm 16.09 Clear   28 24     79%   32 1014.9        
May 25 13:35 Calm 16.09 Clear   28 23     74%   31 1015.24        
May 25 11:55 NE 9 16.09 Clear   29 23     70%   33 1016.59        
May 25 11:35 Calm 16.09 Clear   29 23     70%   33 1016.93        
May 25 11:15 Calm 16.09 Clear   28 23     74%   31 1017.27        
May 25 10:55 E 9 16.09 Clear   27 23     79%   30 1017.27        
May 25 10:35 7 16.09 Clear   27 23     79%   30 1017.61        
May 25 10:15 ENE 9 16.09 Clear   27 23     79%   30 1017.61        
May 25 09:55 ENE 7 16.09 Clear   27 23     79%   30 1017.61        
May 25 09:35 Calm 16.09 Clear   26 23     84%   28 1017.61        
May 25 09:15 Calm 16.09 Clear   25 23     89%   26 1017.95        
May 25 08:55 Calm 14.48 Clear   24 23     94%   25 1017.95        
May 25 08:35 Calm 14.48 Clear   24 24     100%   25 1017.95        
May 25 08:15 Calm 16.09 Clear   23 23     100%   24 1018.29        
May 25 07:55 Calm 12.88 Clear   23 23     100%   24 1018.29        
May 25 07:35 Calm 12.88 Clear   23 23     100%   24 1018.29        
May 25 07:15 Calm 9.66 Clear   22 22     100%   23 1017.95        
May 25 06:55 Calm 6.44 Clear   22 22     100%   23 1017.95        
May 25 06:35 Calm 6.44 Clear   21 21     100%     1017.61        
May 25 06:15 Calm 6.44 Clear   21 21     100%     1017.61        
May 25 05:55 Calm 4.83 Clear   21 21     100%     1017.27        
May 25 05:35 Calm 6.44 Clear   20 20     100%     1017.27        
May 25 05:15 Calm 11.27 Clear   21 21     100%     1017.27        
May 25 04:55 Calm 11.27 Clear   21 21     100%     1017.27        
May 25 04:35 Calm 9.66 Clear   21 21     100%     1016.93        
May 25 04:15 Calm 11.27 Clear   21 21     100%     1016.93        
May 25 03:55 Calm 8.05 Clear   20 20     100%     1016.93        
May 25 03:35 Calm 6.44 Clear   20 20     100%     1016.93        
May 25 03:15 Calm 11.27 Clear   20 20     100%     1016.93        
May 25 02:55 Calm 6.44 Clear   20 20     100%     1016.93        
May 25 02:35 Calm 9.66 Clear   20 20     100%     1017.27        
May 25 02:15 Calm 9.66 Clear   20 20     100%     1017.27        
May 25 01:55 Calm 9.66 Clear   20 20     100%     1017.61        
May 25 01:35 Calm 8.05 Clear   19 19     100%     1017.61        
May 25 01:15 Calm 11.27 Clear   20 20     100%     1017.95        
May 25 00:55 Calm 9.66 Clear   20 20     100%     1017.95        
May 25 00:35 Calm 6.44 Clear   20 20     100%     1018.29        
May 25 00:15 Calm 11.27 Clear   20 20     100%     1018.29        
May 24 23:55 Calm   Clear   20 20     100%     1018.63        
May 24 23:35 Calm 12.88 Clear   21 21     100%     1018.96        
May 24 23:15 Calm 14.48 Clear   21 21     100%     1018.96        
May 24 22:55 Calm 14.48 Clear   21 21     100%     1018.96        
May 24 22:35 Calm 14.48 Clear   21 21     100%     1018.96        
May 24 22:15 Calm 14.48 Clear   21 21     100%     1018.96        
May 24 21:55 Calm 16.09 Clear   22 22     100%   23 1018.63        
May 24 21:35 Calm 16.09 Clear   22 22     100%   23 1018.29        
May 24 21:15 Calm 16.09 Clear   22 22     100%   23 1017.95        
May 24 20:55 Calm 16.09 Clear   23 23     100%   24 1017.61        
May 24 20:35 Calm 16.09 Clear   23 23     100%   24 1017.27        
May 24 20:15 Calm 16.09 Clear   23 23     100%   24 1017.27        
May 24 19:55 Calm 16.09 Clear   24 23     94%   25 1016.93        
May 24 19:35 Calm 16.09 Clear   25 22     83%   26 1016.93        
May 24 19:15 SW 6 14.48 Clear   25 22     83%   26 1016.93        
May 24 18:55 SW 9 16.09 Clear   26 22     79%   28 1016.93        
May 24 18:35 SW 11 16.09 Clear   26 22     79%   28 1016.93        
May 24 18:15 SSW 13 16.09 Clear   26 22     79%   28 1016.93        
May 24 17:55 SSW 13 16.09 Clear   27 22     74%   29 1016.93        
May 24 17:35 SSW 11 16.09 Clear   27 23     79%   30 1016.93        
May 24 17:15 SW 9 16.09 Clear   27 23     79%   30 1016.93        
May 24 16:55 Calm 16.09 Clear   26 24     89%   28 1017.27        
May 24 16:35 SE 6 16.09 Clear   26 24     89%   28 1017.27        
May 24 16:15 E 9 16.09 Clear   25 23     89%   26 1017.27        
May 24 15:55 SE 9 12.88 Clear   26 24     89%   28 1016.93        
May 24 15:35 SE 15 16.09 Clear   29 22     66%   32 1016.93        
May 24 15:15 Calm 16.09 Clear   31 23     63%   35 1016.93        
May 24 14:55 N 13 16.09 Clear   32 21     52%   35 1016.93        
May 24 14:35 Calm 16.09 Clear   32 20     49%   34 1017.27        
May 24 14:15 Calm 16.09 Clear   32 22     56%   36 1017.61        
May 24 13:55 9 16.09 Clear   32 21     52%   35 1017.61        
May 24 13:35 NE 11 16.09 Clear   31 22     59%   35 1017.95        
May 24 13:15 7 9.66 Clear   31 22     59%   35 1017.95        
May 24 12:55 Calm 11.27 Clear   31 22     59%   35 1018.29        
May 24 12:35 NE 7 14.48 Clear   30 22     62%   33 1018.63        
May 24 12:15 Calm 14.48 Clear   29 23     70%   33 1018.96        
May 24 11:55 ENE 9 16.09 Clear   29 23     70%   33 1019.3        
May 24 11:35 NNE 9 16.09 Clear   29 22     66%   32 1019.3        
May 24 11:15 6 16.09 Clear   29 23     70%   33 1019.64        
May 24 10:55 ENE 7 16.09 Clear   29 24     74%   34 1019.64        
May 24 10:35 NE 7 16.09 Clear   28 23     74%   31 1019.64        
May 24 10:15 ENE 7 16.09 Clear   27 24     84%   30 1019.64        
May 24 09:55 ENE 7 16.09 Clear   27 23     79%   30 1019.64        
May 24 09:35 NE 6 16.09 Clear   26 24     89%   28 1019.98        
May 24 09:15 Calm 14.48 Clear   25 24     94%   26 1019.98        
May 24 08:55 6 16.09 Clear   24 24     100%   25 1019.98        
May 24 08:35 Calm 14.48 Clear   23 23     100%   24 1019.98        
May 24 08:15 Calm 1.61 Clear   22 22     100%   23 1019.98        
May 24 07:55 Calm   Clear   22 22     100%   23 1019.64        
May 24 07:35 Calm   Clear   22 22     100%   23 1019.3        
May 24 06:55 Calm   Clear   21 21     100%     1019.3        
May 24 06:35 Calm 3.22 Clear   21 21     100%     1019.3        
May 24 06:15 Calm 4.83 Clear   20 20     100%     1018.96        
May 24 05:55 Calm 9.66 Clear   19 19     100%     1018.63        
May 24 05:35 Calm 1.21 Clear   19 19     100%     1018.29        
May 24 05:15 Calm 0.4 Clear   19 19     100%     1018.29        
May 24 04:55 Calm 4.83 Clear   19 19     100%     1017.95        
May 24 04:35 Calm   Clear   19 19     100%     1017.95        
May 24 04:15 Calm 1.61 Clear   19 19     100%     1017.95        
May 24 03:55 Calm 4.02 Clear   20 20     100%     1017.95        
May 24 03:35 Calm 3.22 Clear   20 20     100%     1017.61        
May 24 03:15 Calm 6.44 Clear   20 20     100%     1017.61        
May 24 02:55 Calm 6.44 Clear   20 20     100%     1017.61        
May 24 02:35 Calm 2.01 Clear   20 20     100%     1017.61        
May 24 02:15 Calm 6.44 Clear   20 20     100%     1017.95        
May 24 01:55 Calm 12.88 Clear   20 20     100%     1017.95        
May 24 01:35 Calm 11.27 Clear   20 20     100%     1017.95        
May 24 01:15 Calm 14.48 Clear   20 20     100%     1017.95        
May 24 00:55 Calm 11.27 Clear   21 21     100%     1017.95        
May 24 00:35 Calm 6.44 Clear   21 21     100%     1018.29        
May 24 00:15 Calm 11.27 Clear   21 21     100%     1018.29        
May 23 23:55 Calm 12.88 Clear   21 21     100%     1018.63        
May 23 23:35 Calm 12.88 Clear   21 21     100%     1018.63        
May 23 23:15 Calm 14.48 Clear   21 21     100%     1018.63        
May 23 22:55 Calm 16.09 Clear   21 21     100%     1018.96        
May 23 22:35 Calm 16.09 Clear   21 21     100%     1018.96        
May 23 22:15 Calm 16.09 Clear   21 21     100%     1018.96        
May 23 21:55 Calm 16.09 Clear   22 22     100%   23 1018.96        
May 23 21:35 Calm 16.09 Clear   22 22     100%   23 1018.63        
May 23 21:15 Calm 16.09 Clear   22 22     100%   23 1018.29        
May 23 20:55 Calm 16.09 Clear   22 22     100%   23 1017.95        
May 23 20:35 Calm 16.09 Clear   23 23     100%   24 1017.61        
May 23 20:15 Calm 16.09 Clear   23 23     100%   24 1017.61        
May 23 19:55 Calm 16.09 Clear   24 24     100%   25 1017.27        
May 23 19:35 Calm 14.48 Clear   25 25     100%   26 1017.27        
May 23 19:15 Calm 16.09 Clear   26 25     94%   28 1017.27        
May 23 18:55 Calm 16.09 Clear   27 25     89%   31 1016.93        
May 23 18:35 Calm   Clear   28 24     79%   32 1016.93        
May 23 18:15 Calm 16.09 Clear   28 24     79%   32 1016.93        
May 23 17:55 W 6 16.09 Clear   27 24     84%   30 1016.93        
May 23 17:35 W 6 16.09 Clear   28 24     79%   32 1016.93        
May 23 17:15 Calm 16.09 Clear   29 23     70%   33 1016.93        
May 23 16:55 Calm 16.09 Clear   29 23     70%   33 1017.27        
May 23 16:35 Calm 16.09 Clear   29 22     66%   32 1017.27        
May 23 16:15 Calm 16.09 Clear   29 23     70%   33 1017.61        
May 23 15:55 Calm 16.09 Clear   29 22     66%   32 1017.61        
May 23 15:35 7 16.09 Clear   29 21     62%   31 1017.61        
May 23 15:15 Calm 16.09 Clear   29 22     66%   32 1017.95        
May 23 14:55 Calm 16.09 Clear   30 21     59%   33 1017.95        
May 23 14:35 9 16.09 Clear   29 22     66%   32 1017.95        
May 23 14:15 ENE 9 16.09 Clear   29 22     66%   32 1017.95        
May 23 13:55 9 16.09 Clear   29 22     66%   32 1018.29        
May 23 13:35 7 16.09 Clear   28 22     70%   31 1018.29        
May 23 13:15 11 16.09 Clear   29 22     66%   32 1018.63        
May 23 12:55 NE 7 16.09 Clear   28 23     74%   31 1018.96        
May 23 12:35 6 14.48 Clear   28 23     74%   31 1019.3        
May 23 12:15 7 16.09 Clear   28 23     74%   31 1019.3        
May 23 11:55 9 16.09 Clear   27 23     79%   30 1019.64        
May 23 11:35 Calm 16.09 Clear   27 22     74%   29 1019.64        
May 23 11:15 NNE 9 16.09 Clear   27 23     79%   30 1019.98        
May 23 10:55 Calm 16.09 Clear   26 23     84%   28 1019.98        
May 23 10:35 Calm 16.09 Clear   26 23     84%   28 1019.98        
May 23 10:15 NW 7 16.09 Clear   25 23     89%   26 1019.98        
May 23 09:55 Calm 16.09 Clear   25 23     89%   26 1019.98        
May 23 09:35 6 14.48 Clear   24 23     94%   25 1019.98        
May 23 09:15 N 9 12.88 Clear   24 23     94%   25 1019.98        
May 23 08:55 N 6 12.88 Clear   23 23     100%   24 1019.98        
May 23 08:35 NNE 7 11.27 Clear   23 23     100%   24 1019.98        
May 23 08:15 7 9.66 Clear   22 22     100%   23 1019.64        
May 23 07:55 NNE 6 8.05 Clear   22 22     100%   23 1019.64        
May 23 07:35 NNE 6 6.44 Clear   22 22     100%   23 1019.3        
May 23 07:15 NNE 7 8.05 Clear   22 22     100%   23 1019.3        
May 23 06:55 Calm 4.02 Clear   22 22     100%   23 1018.96        
May 23 06:35 N 7 4.02 Clear   22 22     100%   23 1018.96        
May 23 06:15 N 6 2.82 Clear   22 22     100%   23 1018.63        
May 23 05:55 N 6 4.02 Clear   22 22     100%   23 1018.29        
May 23 05:35 Calm 6.44 Clear   22 22     100%   23 1017.95        
May 23 05:15 Calm 9.66 Clear   22 22     100%   23 1017.95        
May 23 04:55 N 6 14.48 Clear   22 22     100%   23 1017.61        
May 23 04:35 Calm 16.09 Clear   22 22     100%   23 1017.61        
May 23 04:15 Calm 16.09 Clear   21 21     100%     1017.27        
May 23 03:55 Calm 16.09 Clear   21 21     100%     1016.93        
May 23 03:35 Calm 16.09 Clear   21 21     100%     1016.93        
May 23 03:15 Calm 16.09 Clear   21 21     100%     1016.93        
May 23 02:55 Calm 16.09 Clear   20 20     100%     1016.93        
May 23 02:35 Calm 14.48 Clear   20 20     100%     1016.93        
May 23 02:15 Calm 14.48 Clear   20 20     100%     1016.93        
May 23 01:55 Calm 16.09 Clear   21 21     100%     1016.93        
May 23 01:35 Calm 16.09 Clear   20 20     100%     1017.27        
May 23 01:15 Calm 16.09 Clear   20 20     100%     1017.27        
May 23 00:55 Calm 16.09 Clear   20 20     100%     1017.27        
May 23 00:35 Calm 14.48 Clear   20 20     100%     1017.61        
May 23 00:15 Calm 16.09 Clear   20 20     100%     1017.61        
May 22 23:55 Calm 16.09 Clear   20 20     100%     1017.61        
May 22 23:35 Calm 16.09 Clear   20 20     100%     1017.95        
May 22 23:15 Calm 16.09 Clear   20 20     100%     1017.95        
May 22 22:55 Calm 16.09 Clear   20 20     100%     1017.95        
May 22 22:35 Calm 16.09 Clear   20 20     100%     1017.95        
May 22 22:15 Calm 16.09 Clear   20 20     100%     1017.95        
May 22 21:55 Calm 16.09 Clear   20 20     100%     1017.95        
May 22 21:35 Calm 16.09 Clear   21 21     100%     1017.61        
May 22 21:15 Calm 16.09 Clear   21 21     100%     1017.27        
May 22 20:55 Calm 16.09 Clear   21 21     100%     1017.27        
May 22 20:35 Calm 16.09 Clear   21 21     100%     1016.93        
May 22 20:15 Calm 16.09 Clear   22 22     100%   23 1016.59        
May 22 19:55 Calm 16.09 Clear   22 22     100%   23 1016.59        
May 22 19:35 Calm 16.09 Clear   23 23     100%   24 1016.26        
May 22 19:15 Calm 16.09 Clear   24 23     94%   25 1016.26        
May 22 18:55 Calm 16.09 Clear   25 23     89%   26 1016.26        
May 22 18:35 SSE 9   Clear   25 23     89%   26 1015.92        
May 22 18:15 Calm 16.09 Clear   26 23     84%   28 1015.92        
May 22 17:55 Calm 16.09 Clear   26 23     84%   28 1015.92        
May 22 17:35 Calm 16.09 Clear   27 22     74%   29 1015.58        
May 22 17:15 Calm 16.09 Clear   27 22     74%   29 1015.92        
May 22 16:55 W 6 16.09 Clear   28 22     70%   31 1015.92        
May 22 16:35 Calm 16.09 Clear   27 22     74%   29 1015.92        
May 15 08:35 Calm 16.09 Clear   23 21     89%   24 1016.26        
May 14 21:15 Calm 16.09 Clear   22 22     100%   23 1014.56        
Notice The following observation data may not be complete
May 14 16:55   16.09 Clear            %              
May 14 15:55 NNE 9 16.09 Clear   32 18     43%   33 1014.9        
May 14 12:35 ENE 7 16.09 Clear   32 19     46%   33 1017.27        
May 14 11:55 7 16.09 Clear   31 20     52%   33 1017.61        
May 14 11:15 9 16.09 Clear   30 20     55%   32 1017.95        
May 14 09:55 E 7 16.09 Clear   27 21     70%   29 1018.29        
Notice The following observation data may not be complete
May 14 08:15 Calm 16.09 Clear     21      %     1018.29        
May 14 05:15 Calm 8.05 Clear   16 16     100%     1017.27        
May 14 02:55 Calm 11.27 Clear   17 17     100%     1016.93        
Notice The following observation data may not be complete
May 13 20:55 Calm 16.09 Clear     20      %     1017.61        
May 13 16:15 Calm 16.09 Clear   33 15     34%   33 1017.27        
May 13 14:55 Calm 16.09 Clear   32 16     38%   32 1018.29        
Notice The following observation data may not be complete
May 13 12:55   16.09 Clear            %              
May 13 10:15 Calm 16.09 Clear   28 18     55%   29 1021.67        
May 13 01:15 Calm 11.27 Clear   15 15     100%     1018.96        
May 12 22:15 Calm 16.09 Clear   17 17     100%     1019.98        
May 12 14:35 9 16.09 Clear   31 15     38%   31 1019.98        
May 12 11:55 Calm 16.09 Clear   30 16     43%   30 1021.67        
May 12 08:55 Calm 16.09 Clear   24 19     74%   24 1022.35        
May 12 08:15 Calm 16.09 Clear   21 20     94%     1022.35        
May 12 00:55 Calm 9.66 Clear   16 16     100%     1019.3        
May 12 00:15 Calm 14.48 Clear   16 16     100%     1019.3        
May 11 22:55 Calm 16.09 Clear   17 17     100%     1019.64        
Notice The following observation data may not be complete
May 11 20:55 Calm 16.09 Clear     19      %     1018.96        
May 11 12:35 S 7 16.09 Clear   30 17     46%   30 1020.32